カタログに戻る

STARLINK-5999

運用中通信VLEO
NORAD 56909·PAYLOAD·🇺🇸 United States

打ち上げ Jun 12, 2023 から Cape Canaveral Space Force Station

Loading…

次のパス (今後24時間)

TLE

最新Source: CelesTrak SupGP

元期: Sep 15, 2026, 01:38 UTC

1 56909C 23083AK  26258.06854167  .00012672  00000+0  45889-3 0  2587
2 56909  43.0016  81.5887 0001947 270.1300 186.4902 15.27576915    15

AllMySatでSTARLINK-5999をリアルタイム追跡

Download on the App Store